Year,Month,Day,Hour,Minute,Value (Times are PST for insolation in W/m^2)
2012,02,29,00,00,0.00
2012,02,29,00,01,0.00
2012,02,29,00,02,0.00
2012,02,29,00,03,0.00
2012,02,29,00,04,0.00
2012,02,29,00,05,0.00
2012,02,29,00,06,0.00
2012,02,29,00,07,0.00
2012,02,29,00,08,0.00
2012,02,29,00,09,0.00
2012,02,29,00,10,0.00
2012,02,29,00,11,0.00
2012,02,29,00,12,0.00
2012,02,29,00,13,0.00
2012,02,29,00,14,0.00
2012,02,29,00,15,0.00
2012,02,29,00,16,0.00
2012,02,29,00,17,0.00
2012,02,29,00,18,0.00
2012,02,29,00,19,0.00
2012,02,29,00,20,0.00
2012,02,29,00,21,0.00
2012,02,29,00,22,0.00
2012,02,29,00,23,0.00
2012,02,29,00,24,0.00
2012,02,29,00,25,0.00
2012,02,29,00,26,0.00
2012,02,29,00,27,0.00
2012,02,29,00,28,0.00
2012,02,29,00,29,0.00
2012,02,29,00,30,0.00
2012,02,29,00,31,0.00
2012,02,29,00,32,0.00
2012,02,29,00,33,0.00
2012,02,29,00,34,0.00
2012,02,29,00,35,0.00
2012,02,29,00,36,0.00
2012,02,29,00,37,0.00
2012,02,29,00,38,0.00
2012,02,29,00,39,0.00
2012,02,29,00,40,0.00
2012,02,29,00,41,0.00
2012,02,29,00,42,0.00
2012,02,29,00,43,0.00
2012,02,29,00,44,0.00
2012,02,29,00,45,0.00
2012,02,29,00,46,0.00
2012,02,29,00,47,0.00
2012,02,29,00,48,0.00
2012,02,29,00,49,0.00
2012,02,29,00,50,0.00
2012,02,29,00,51,0.00
2012,02,29,00,52,0.00
2012,02,29,00,53,0.00
2012,02,29,00,54,0.00
2012,02,29,00,55,0.00
2012,02,29,00,56,0.00
2012,02,29,00,57,0.00
2012,02,29,00,58,0.00
2012,02,29,00,59,0.00
2012,02,29,01,00,0.00
2012,02,29,01,01,0.00
2012,02,29,01,02,0.00
2012,02,29,01,03,0.00
2012,02,29,01,04,0.00
2012,02,29,01,05,0.00
2012,02,29,01,06,0.00
2012,02,29,01,07,0.00
2012,02,29,01,08,0.00
2012,02,29,01,09,0.00
2012,02,29,01,10,0.00
2012,02,29,01,11,0.00
2012,02,29,01,12,0.00
2012,02,29,01,13,0.00
2012,02,29,01,14,0.00
2012,02,29,01,15,0.00
2012,02,29,01,16,0.00
2012,02,29,01,17,0.00
2012,02,29,01,18,0.00
2012,02,29,01,19,0.00
2012,02,29,01,20,0.00
2012,02,29,01,21,0.00
2012,02,29,01,22,0.00
2012,02,29,01,23,0.00
2012,02,29,01,24,0.00
2012,02,29,01,25,0.00
2012,02,29,01,26,0.00
2012,02,29,01,27,0.00
2012,02,29,01,28,0.00
2012,02,29,01,29,0.00
2012,02,29,01,30,0.00
2012,02,29,01,31,0.00
2012,02,29,01,32,0.00
2012,02,29,01,33,0.00
2012,02,29,01,34,0.00
2012,02,29,01,35,0.00
2012,02,29,01,36,0.00
2012,02,29,01,37,0.00
2012,02,29,01,38,0.00
2012,02,29,01,39,0.00
2012,02,29,01,40,0.00
2012,02,29,01,41,0.00
2012,02,29,01,42,0.00
2012,02,29,01,43,0.00
2012,02,29,01,44,0.00
2012,02,29,01,45,0.00
2012,02,29,01,46,0.00
2012,02,29,01,47,0.00
2012,02,29,01,48,0.00
2012,02,29,01,49,0.00
2012,02,29,01,50,0.00
2012,02,29,01,51,0.00
2012,02,29,01,52,0.00
2012,02,29,01,53,0.00
2012,02,29,01,54,0.00
2012,02,29,01,55,0.00
2012,02,29,01,56,0.00
2012,02,29,01,57,0.00
2012,02,29,01,58,0.00
2012,02,29,01,59,0.00
2012,02,29,02,00,0.00
2012,02,29,02,01,0.00
2012,02,29,02,02,0.00
2012,02,29,02,03,0.00
2012,02,29,02,04,0.00
2012,02,29,02,05,0.00
2012,02,29,02,06,0.00
2012,02,29,02,07,0.00
2012,02,29,02,08,0.00
2012,02,29,02,09,0.00
2012,02,29,02,10,0.00
2012,02,29,02,11,0.00
2012,02,29,02,12,0.00
2012,02,29,02,13,0.00
2012,02,29,02,14,0.00
2012,02,29,02,15,0.00
2012,02,29,02,16,0.00
2012,02,29,02,17,0.00
2012,02,29,02,18,0.00
2012,02,29,02,19,0.00
2012,02,29,02,20,0.00
2012,02,29,02,21,0.00
2012,02,29,02,22,0.00
2012,02,29,02,23,0.00
2012,02,29,02,24,0.00
2012,02,29,02,25,0.00
2012,02,29,02,26,0.00
2012,02,29,02,27,0.00
2012,02,29,02,28,0.00
2012,02,29,02,29,0.00
2012,02,29,02,30,0.00
2012,02,29,02,31,0.00
2012,02,29,02,32,0.00
2012,02,29,02,33,0.00
2012,02,29,02,34,0.00
2012,02,29,02,35,0.00
2012,02,29,02,36,0.00
2012,02,29,02,37,0.00
2012,02,29,02,38,0.00
2012,02,29,02,39,0.00
2012,02,29,02,40,0.00
2012,02,29,02,41,0.00
2012,02,29,02,42,0.00
2012,02,29,02,43,0.00
2012,02,29,02,44,0.00
2012,02,29,02,45,0.00
2012,02,29,02,46,0.00
2012,02,29,02,47,0.00
2012,02,29,02,48,0.00
2012,02,29,02,49,0.00
2012,02,29,02,50,0.00
2012,02,29,02,51,0.00
2012,02,29,02,52,0.00
2012,02,29,02,53,0.00
2012,02,29,02,54,0.00
2012,02,29,02,55,0.00
2012,02,29,02,56,0.00
2012,02,29,02,57,0.00
2012,02,29,02,58,0.00
2012,02,29,02,59,0.00
2012,02,29,03,00,0.00
2012,02,29,03,01,0.00
2012,02,29,03,02,0.00
2012,02,29,03,03,0.00
2012,02,29,03,04,0.00
2012,02,29,03,05,0.00
2012,02,29,03,06,0.00
2012,02,29,03,07,0.00
2012,02,29,03,08,0.00
2012,02,29,03,09,0.00
2012,02,29,03,10,0.00
2012,02,29,03,11,0.00
2012,02,29,03,12,0.00
2012,02,29,03,13,0.00
2012,02,29,03,14,0.00
2012,02,29,03,15,0.00
2012,02,29,03,16,0.00
2012,02,29,03,17,0.00
2012,02,29,03,18,0.00
2012,02,29,03,19,0.00
2012,02,29,03,20,0.00
2012,02,29,03,21,0.00
2012,02,29,03,22,0.00
2012,02,29,03,23,0.00
2012,02,29,03,24,0.00
2012,02,29,03,25,0.00
2012,02,29,03,26,0.00
2012,02,29,03,27,0.00
2012,02,29,03,28,0.00
2012,02,29,03,29,0.00
2012,02,29,03,30,0.00
2012,02,29,03,31,0.00
2012,02,29,03,32,0.00
2012,02,29,03,33,0.00
2012,02,29,03,34,0.00
2012,02,29,03,35,0.00
2012,02,29,03,36,0.00
2012,02,29,03,37,0.00
2012,02,29,03,38,0.00
2012,02,29,03,39,0.00
2012,02,29,03,40,0.00
2012,02,29,03,41,0.00
2012,02,29,03,42,0.00
2012,02,29,03,43,0.00
2012,02,29,03,44,0.00
2012,02,29,03,45,0.00
2012,02,29,03,46,0.00
2012,02,29,03,47,0.00
2012,02,29,03,48,0.00
2012,02,29,03,49,0.00
2012,02,29,03,50,0.00
2012,02,29,03,51,0.00
2012,02,29,03,52,0.00
2012,02,29,03,53,0.00
2012,02,29,03,54,0.00
2012,02,29,03,55,0.00
2012,02,29,03,56,0.00
2012,02,29,03,57,0.00
2012,02,29,03,58,0.00
2012,02,29,03,59,0.00
2012,02,29,04,00,0.00
2012,02,29,04,01,0.00
2012,02,29,04,02,0.00
2012,02,29,04,03,0.00
2012,02,29,04,04,0.00
2012,02,29,04,05,0.00
2012,02,29,04,06,0.00
2012,02,29,04,07,0.00
2012,02,29,04,08,0.00
2012,02,29,04,09,0.00
2012,02,29,04,10,0.00
2012,02,29,04,11,0.00
2012,02,29,04,12,0.00
2012,02,29,04,13,0.00
2012,02,29,04,14,0.00
2012,02,29,04,15,0.00
2012,02,29,04,16,0.00
2012,02,29,04,17,0.00
2012,02,29,04,18,0.00
2012,02,29,04,19,0.00
2012,02,29,04,20,0.00
2012,02,29,04,21,0.00
2012,02,29,04,22,0.00
2012,02,29,04,23,0.00
2012,02,29,04,24,0.00
2012,02,29,04,25,0.00
2012,02,29,04,26,0.00
2012,02,29,04,27,0.00
2012,02,29,04,28,0.00
2012,02,29,04,29,0.00
2012,02,29,04,30,0.00
2012,02,29,04,31,0.00
2012,02,29,04,32,0.00
2012,02,29,04,33,0.00
2012,02,29,04,34,0.00
2012,02,29,04,35,0.00
2012,02,29,04,36,0.00
2012,02,29,04,37,0.00
2012,02,29,04,38,0.00
2012,02,29,04,39,0.00
2012,02,29,04,40,0.00
2012,02,29,04,41,0.00
2012,02,29,04,42,0.00
2012,02,29,04,43,0.00
2012,02,29,04,44,0.00
2012,02,29,04,45,0.00
2012,02,29,04,46,0.00
2012,02,29,04,47,0.00
2012,02,29,04,48,0.00
2012,02,29,04,49,0.00
2012,02,29,04,50,0.00
2012,02,29,04,51,0.00
2012,02,29,04,52,0.00
2012,02,29,04,53,0.00
2012,02,29,04,54,0.00
2012,02,29,04,55,0.00
2012,02,29,04,56,0.00
2012,02,29,04,57,0.00
2012,02,29,04,58,0.00
2012,02,29,04,59,0.00
2012,02,29,05,00,0.00
2012,02,29,05,01,0.00
2012,02,29,05,02,0.00
2012,02,29,05,03,0.00
2012,02,29,05,04,0.00
2012,02,29,05,05,0.00
2012,02,29,05,06,0.00
2012,02,29,05,07,0.00
2012,02,29,05,08,0.00
2012,02,29,05,09,0.00
2012,02,29,05,10,0.00
2012,02,29,05,11,0.00
2012,02,29,05,12,0.00
2012,02,29,05,13,0.00
2012,02,29,05,14,0.00
2012,02,29,05,15,0.00
2012,02,29,05,16,0.00
2012,02,29,05,17,0.00
2012,02,29,05,18,0.00
2012,02,29,05,19,0.00
2012,02,29,05,20,0.00
2012,02,29,05,21,0.00
2012,02,29,05,22,0.00
2012,02,29,05,23,0.00
2012,02,29,05,24,0.00
2012,02,29,05,25,0.00
2012,02,29,05,26,0.00
2012,02,29,05,27,0.00
2012,02,29,05,28,0.00
2012,02,29,05,29,0.00
2012,02,29,05,30,0.00
2012,02,29,05,31,0.00
2012,02,29,05,32,0.00
2012,02,29,05,33,0.00
2012,02,29,05,34,0.00
2012,02,29,05,35,0.00
2012,02,29,05,36,0.00
2012,02,29,05,37,0.00
2012,02,29,05,38,0.00
2012,02,29,05,39,0.00
2012,02,29,05,40,0.00
2012,02,29,05,41,0.00
2012,02,29,05,42,0.00
2012,02,29,05,43,0.00
2012,02,29,05,44,0.00
2012,02,29,05,45,0.00
2012,02,29,05,46,0.00
2012,02,29,05,47,0.00
2012,02,29,05,48,0.00
2012,02,29,05,49,0.00
2012,02,29,05,50,0.00
2012,02,29,05,51,0.00
2012,02,29,05,52,0.00
2012,02,29,05,53,0.00
2012,02,29,05,54,0.00
2012,02,29,05,55,0.00
2012,02,29,05,56,0.00
2012,02,29,05,57,0.00
2012,02,29,05,58,0.00
2012,02,29,05,59,0.00
2012,02,29,06,00,0.00
2012,02,29,06,01,0.00
2012,02,29,06,02,0.00
2012,02,29,06,03,0.00
2012,02,29,06,04,0.00
2012,02,29,06,05,0.00
2012,02,29,06,06,0.00
2012,02,29,06,07,0.00
2012,02,29,06,08,0.00
2012,02,29,06,09,0.00
2012,02,29,06,10,0.00
2012,02,29,06,11,0.00
2012,02,29,06,12,0.00
2012,02,29,06,13,0.00
2012,02,29,06,14,0.00
2012,02,29,06,15,0.00
2012,02,29,06,16,0.00
2012,02,29,06,17,0.00
2012,02,29,06,18,0.00
2012,02,29,06,19,0.00
2012,02,29,06,20,0.00
2012,02,29,06,21,0.00
2012,02,29,06,22,0.00
2012,02,29,06,23,0.00
2012,02,29,06,24,0.00
2012,02,29,06,25,0.00
2012,02,29,06,26,0.00
2012,02,29,06,27,0.00
2012,02,29,06,28,0.00
2012,02,29,06,29,0.00
2012,02,29,06,30,0.00
2012,02,29,06,31,0.00
2012,02,29,06,32,0.00
2012,02,29,06,33,0.00
2012,02,29,06,34,0.00
2012,02,29,06,35,0.00
2012,02,29,06,36,0.00
2012,02,29,06,37,0.00
2012,02,29,06,38,0.00
2012,02,29,06,39,0.00
2012,02,29,06,40,0.00
2012,02,29,06,41,0.00
2012,02,29,06,42,0.00
2012,02,29,06,43,0.00
2012,02,29,06,44,0.00
2012,02,29,06,45,0.00
2012,02,29,06,46,0.00
2012,02,29,06,47,0.00
2012,02,29,06,48,0.00
2012,02,29,06,49,0.00
2012,02,29,06,50,0.00
2012,02,29,06,51,0.00
2012,02,29,06,52,0.00
2012,02,29,06,53,0.00
2012,02,29,06,54,0.00
2012,02,29,06,55,0.00
2012,02,29,06,56,0.00
2012,02,29,06,57,0.00
2012,02,29,06,58,0.00
2012,02,29,06,59,0.00
2012,02,29,07,00,1.50
2012,02,29,07,01,5.00
2012,02,29,07,02,5.00
2012,02,29,07,03,5.00
2012,02,29,07,04,5.00
2012,02,29,07,05,6.80
2012,02,29,07,06,7.00
2012,02,29,07,07,7.00
2012,02,29,07,08,6.10
2012,02,29,07,09,5.00
2012,02,29,07,10,1.50
2012,02,29,07,11,0.00
2012,02,29,07,12,0.00
2012,02,29,07,13,0.00
2012,02,29,07,14,0.00
2012,02,29,07,15,0.00
2012,02,29,07,16,2.90
2012,02,29,07,17,5.00
2012,02,29,07,18,5.00
2012,02,29,07,19,6.80
2012,02,29,07,20,7.00
2012,02,29,07,21,7.70
2012,02,29,07,22,9.00
2012,02,29,07,23,9.00
2012,02,29,07,24,9.00
2012,02,29,07,25,10.60
2012,02,29,07,26,11.00
2012,02,29,07,27,11.00
2012,02,29,07,28,11.00
2012,02,29,07,29,11.00
2012,02,29,07,30,11.00
2012,02,29,07,31,11.70
2012,02,29,07,32,12.00
2012,02,29,07,33,12.00
2012,02,29,07,34,12.00
2012,02,29,07,35,12.00
2012,02,29,07,36,12.00
2012,02,29,07,37,12.00
2012,02,29,07,38,12.00
2012,02,29,07,39,12.00
2012,02,29,07,40,12.00
2012,02,29,07,41,12.00
2012,02,29,07,42,12.00
2012,02,29,07,43,11.60
2012,02,29,07,44,11.60
2012,02,29,07,45,12.00
2012,02,29,07,46,12.00
2012,02,29,07,47,12.10
2012,02,29,07,48,14.00
2012,02,29,07,49,13.40
2012,02,29,07,50,12.00
2012,02,29,07,51,13.10
2012,02,29,07,52,14.00
2012,02,29,07,53,14.00
2012,02,29,07,54,15.90
2012,02,29,07,55,16.30
2012,02,29,07,56,18.00
2012,02,29,07,57,18.00
2012,02,29,07,58,18.00
2012,02,29,07,59,18.00
2012,02,29,08,00,20.40
2012,02,29,08,01,23.00
2012,02,29,08,02,25.00
2012,02,29,08,03,25.00
2012,02,29,08,04,25.00
2012,02,29,08,05,25.00
2012,02,29,08,06,25.70
2012,02,29,08,07,27.50
2012,02,29,08,08,26.10
2012,02,29,08,09,26.00
2012,02,29,08,10,26.60
2012,02,29,08,11,28.00
2012,02,29,08,12,29.20
2012,02,29,08,13,30.00
2012,02,29,08,14,30.00
2012,02,29,08,15,28.30
2012,02,29,08,16,30.00
2012,02,29,08,17,30.00
2012,02,29,08,18,30.00
2012,02,29,08,19,28.80
2012,02,29,08,20,26.60
2012,02,29,08,21,26.00
2012,02,29,08,22,27.80
2012,02,29,08,23,28.00
2012,02,29,08,24,28.00
2012,02,29,08,25,28.00
2012,02,29,08,26,26.90
2012,02,29,08,27,27.30
2012,02,29,08,28,28.00
2012,02,29,08,29,28.00
2012,02,29,08,30,28.40
2012,02,29,08,31,30.00
2012,02,29,08,32,30.00
2012,02,29,08,33,30.00
2012,02,29,08,34,31.30
2012,02,29,08,35,32.00
2012,02,29,08,36,30.40
2012,02,29,08,37,32.00
2012,02,29,08,38,32.30
2012,02,29,08,39,33.00
2012,02,29,08,40,33.00
2012,02,29,08,41,34.40
2012,02,29,08,42,35.00
2012,02,29,08,43,35.00
2012,02,29,08,44,35.00
2012,02,29,08,45,35.00
2012,02,29,08,46,35.00
2012,02,29,08,47,33.90
2012,02,29,08,48,33.00
2012,02,29,08,49,33.00
2012,02,29,08,50,33.00
2012,02,29,08,51,32.00
2012,02,29,08,52,32.00
2012,02,29,08,53,32.00
2012,02,29,08,54,32.00
2012,02,29,08,55,32.00
2012,02,29,08,56,32.00
2012,02,29,08,57,32.00
2012,02,29,08,58,32.00
2012,02,29,08,59,32.00
2012,02,29,09,00,32.00
2012,02,29,09,01,32.00
2012,02,29,09,02,32.00
2012,02,29,09,03,32.00
2012,02,29,09,04,32.00
2012,02,29,09,05,33.40
2012,02,29,09,06,35.00
2012,02,29,09,07,35.90
2012,02,29,09,08,37.00
2012,02,29,09,09,37.00
2012,02,29,09,10,38.60
2012,02,29,09,11,40.10
2012,02,29,09,12,42.80
2012,02,29,09,13,46.30
2012,02,29,09,14,47.80
2012,02,29,09,15,49.00
2012,02,29,09,16,51.60
2012,02,29,09,17,53.80
2012,02,29,09,18,58.00
2012,02,29,09,19,60.60
2012,02,29,09,20,63.70
2012,02,29,09,21,65.90
2012,02,29,09,22,68.20
2012,02,29,09,23,69.70
2012,02,29,09,24,70.00
2012,02,29,09,25,71.60
2012,02,29,09,26,65.30
2012,02,29,09,27,64.40
2012,02,29,09,28,58.00
2012,02,29,09,29,55.40
2012,02,29,09,30,51.60
2012,02,29,09,31,53.40
2012,02,29,09,32,57.20
2012,02,29,09,33,51.40
2012,02,29,09,34,54.00
2012,02,29,09,35,54.70
2012,02,29,09,36,50.60
2012,02,29,09,37,46.90
2012,02,29,09,38,62.00
2012,02,29,09,39,65.80
2012,02,29,09,40,40.30
2012,02,29,09,41,34.90
2012,02,29,09,42,43.80
2012,02,29,09,43,52.10
2012,02,29,09,44,43.90
2012,02,29,09,45,39.80
2012,02,29,09,46,48.80
2012,02,29,09,47,52.40
2012,02,29,09,48,41.00
2012,02,29,09,49,37.20
2012,02,29,09,50,48.10
2012,02,29,09,51,59.30
2012,02,29,09,52,62.80
2012,02,29,09,53,62.10
2012,02,29,09,54,64.00
2012,02,29,09,55,71.10
2012,02,29,09,56,65.80
2012,02,29,09,57,54.60
2012,02,29,09,58,44.10
2012,02,29,09,59,38.00
2012,02,29,10,00,40.30
2012,02,29,10,01,55.10
2012,02,29,10,02,61.90
2012,02,29,10,03,67.00
2012,02,29,10,04,72.50
2012,02,29,10,05,84.70
2012,02,29,10,06,80.60
2012,02,29,10,07,65.40
2012,02,29,10,08,46.00
2012,02,29,10,09,46.30
2012,02,29,10,10,50.20
2012,02,29,10,11,56.20
2012,02,29,10,12,50.30
2012,02,29,10,13,37.40
2012,02,29,10,14,32.70
2012,02,29,10,15,42.10
2012,02,29,10,16,53.90
2012,02,29,10,17,54.70
2012,02,29,10,18,49.40
2012,02,29,10,19,44.90
2012,02,29,10,20,45.70
2012,02,29,10,21,56.00
2012,02,29,10,22,78.10
2012,02,29,10,23,90.00
2012,02,29,10,24,91.20
2012,02,29,10,25,89.00
2012,02,29,10,26,84.60
2012,02,29,10,27,85.50
2012,02,29,10,28,85.90
2012,02,29,10,29,82.80
2012,02,29,10,30,76.30
2012,02,29,10,31,77.80
2012,02,29,10,32,72.40
2012,02,29,10,33,63.70
2012,02,29,10,34,70.40
2012,02,29,10,35,82.20
2012,02,29,10,36,89.60
2012,02,29,10,37,82.50
2012,02,29,10,38,67.80
2012,02,29,10,39,70.60
2012,02,29,10,40,78.80
2012,02,29,10,41,79.50
2012,02,29,10,42,72.70
2012,02,29,10,43,78.40
2012,02,29,10,44,73.30
2012,02,29,10,45,66.10
2012,02,29,10,46,67.20
2012,02,29,10,47,69.70
2012,02,29,10,48,69.20
2012,02,29,10,49,74.10
2012,02,29,10,50,86.40
2012,02,29,10,51,87.40
2012,02,29,10,52,89.60
2012,02,29,10,53,99.00
2012,02,29,10,54,100.60
2012,02,29,10,55,96.00
2012,02,29,10,56,87.00
2012,02,29,10,57,93.80
2012,02,29,10,58,119.50
2012,02,29,10,59,147.60
2012,02,29,11,00,162.90
2012,02,29,11,01,174.80
2012,02,29,11,02,183.80
2012,02,29,11,03,212.40
2012,02,29,11,04,250.20
2012,02,29,11,05,297.00
2012,02,29,11,06,301.00
2012,02,29,11,07,319.10
2012,02,29,11,08,334.00
2012,02,29,11,09,289.40
2012,02,29,11,10,314.30
2012,02,29,11,11,318.00
2012,02,29,11,12,318.00
2012,02,29,11,13,359.40
2012,02,29,11,14,403.40
2012,02,29,11,15,353.20
2012,02,29,11,16,332.00
2012,02,29,11,17,333.90
2012,02,29,11,18,371.00
2012,02,29,11,19,425.00
2012,02,29,11,20,570.80
2012,02,29,11,21,617.00
2012,02,29,11,22,477.90
2012,02,29,11,23,417.00
2012,02,29,11,24,503.70
2012,02,29,11,25,504.00
2012,02,29,11,26,504.00
2012,02,29,11,27,504.00
2012,02,29,11,28,539.40
2012,02,29,11,29,563.00
2012,02,29,11,30,563.00
2012,02,29,11,31,572.00
2012,02,29,11,32,743.30
2012,02,29,11,33,742.30
2012,02,29,11,34,717.50
2012,02,29,11,35,687.80
2012,02,29,11,36,672.50
2012,02,29,11,37,678.20
2012,02,29,11,38,687.90
2012,02,29,11,39,725.20
2012,02,29,11,40,777.70
2012,02,29,11,41,799.90
2012,02,29,11,42,761.00
2012,02,29,11,43,861.10
2012,02,29,11,44,904.00
2012,02,29,11,45,881.70
2012,02,29,11,46,449.00
2012,02,29,11,47,404.70
2012,02,29,11,48,388.10
2012,02,29,11,49,397.00
2012,02,29,11,50,412.30
2012,02,29,11,51,456.00
2012,02,29,11,52,457.10
2012,02,29,11,53,352.40
2012,02,29,11,54,368.60
2012,02,29,11,55,389.60
2012,02,29,11,56,397.60
2012,02,29,11,57,423.70
2012,02,29,11,58,436.00
2012,02,29,11,59,436.00
2012,02,29,12,00,436.00
2012,02,29,12,01,401.80
2012,02,29,12,02,322.00
2012,02,29,12,03,322.00
2012,02,29,12,04,322.00
2012,02,29,12,05,322.00
2012,02,29,12,06,330.30
2012,02,29,12,07,354.40
2012,02,29,12,08,338.50
2012,02,29,12,09,272.70
2012,02,29,12,10,265.00
2012,02,29,12,11,242.20
2012,02,29,12,12,194.00
2012,02,29,12,13,187.00
2012,02,29,12,14,215.20
2012,02,29,12,15,241.70
2012,02,29,12,16,218.60
2012,02,29,12,17,215.80
2012,02,29,12,18,210.60
2012,02,29,12,19,189.60
2012,02,29,12,20,191.60
2012,02,29,12,21,201.00
2012,02,29,12,22,226.70
2012,02,29,12,23,237.20
2012,02,29,12,24,297.10
2012,02,29,12,25,298.10
2012,02,29,12,26,274.00
2012,02,29,12,27,556.30
2012,02,29,12,28,650.00
2012,02,29,12,29,650.00
2012,02,29,12,30,694.50
2012,02,29,12,31,745.20
2012,02,29,12,32,742.00
2012,02,29,12,33,709.20
2012,02,29,12,34,689.20
2012,02,29,12,35,697.20
2012,02,29,12,36,693.00
2012,02,29,12,37,719.60
2012,02,29,12,38,680.00
2012,02,29,12,39,635.00
2012,02,29,12,40,776.60
2012,02,29,12,41,796.40
2012,02,29,12,42,665.30
2012,02,29,12,43,748.00
2012,02,29,12,44,814.00
2012,02,29,12,45,814.00
2012,02,29,12,46,655.10
2012,02,29,12,47,587.00
2012,02,29,12,48,296.30
2012,02,29,12,49,262.00
2012,02,29,12,50,178.40
2012,02,29,12,51,156.40
2012,02,29,12,52,147.40
2012,02,29,12,53,154.20
2012,02,29,12,54,172.40
2012,02,29,12,55,176.00
2012,02,29,12,56,210.90
2012,02,29,12,57,382.40
2012,02,29,12,58,346.00
2012,02,29,12,59,318.00
2012,02,29,13,00,302.70
2012,02,29,13,01,322.80
2012,02,29,13,02,310.50
2012,02,29,13,03,302.00
2012,02,29,13,04,302.00
2012,02,29,13,05,532.50
2012,02,29,13,06,786.00
2012,02,29,13,07,786.00
2012,02,29,13,08,770.00
2012,02,29,13,09,847.30
2012,02,29,13,10,827.40
2012,02,29,13,11,789.20
2012,02,29,13,12,713.70
2012,02,29,13,13,621.80
2012,02,29,13,14,580.00
2012,02,29,13,15,529.60
2012,02,29,13,16,539.20
2012,02,29,13,17,530.20
2012,02,29,13,18,612.30
2012,02,29,13,19,651.90
2012,02,29,13,20,643.30
2012,02,29,13,21,680.60
2012,02,29,13,22,701.00
2012,02,29,13,23,328.40
2012,02,29,13,24,287.00
2012,02,29,13,25,270.50
2012,02,29,13,26,243.70
2012,02,29,13,27,229.90
2012,02,29,13,28,207.00
2012,02,29,13,29,207.00
2012,02,29,13,30,213.50
2012,02,29,13,31,211.90
2012,02,29,13,32,215.40
2012,02,29,13,33,210.80
2012,02,29,13,34,202.70
2012,02,29,13,35,193.30
2012,02,29,13,36,191.60
2012,02,29,13,37,196.80
2012,02,29,13,38,201.60
2012,02,29,13,39,200.70
2012,02,29,13,40,202.10
2012,02,29,13,41,194.30
2012,02,29,13,42,190.00
2012,02,29,13,43,194.00
2012,02,29,13,44,198.30
2012,02,29,13,45,188.70
2012,02,29,13,46,188.20
2012,02,29,13,47,207.60
2012,02,29,13,48,222.90
2012,02,29,13,49,229.90
2012,02,29,13,50,232.00
2012,02,29,13,51,229.90
2012,02,29,13,52,221.60
2012,02,29,13,53,211.00
2012,02,29,13,54,195.00
2012,02,29,13,55,166.80
2012,02,29,13,56,144.10
2012,02,29,13,57,133.10
2012,02,29,13,58,139.20
2012,02,29,13,59,152.30
2012,02,29,14,00,157.30
2012,02,29,14,01,151.50
2012,02,29,14,02,138.30
2012,02,29,14,03,124.00
2012,02,29,14,04,114.10
2012,02,29,14,05,107.30
2012,02,29,14,06,101.60
2012,02,29,14,07,100.60
2012,02,29,14,08,103.30
2012,02,29,14,09,108.60
2012,02,29,14,10,119.40
2012,02,29,14,11,139.00
2012,02,29,14,12,169.20
2012,02,29,14,13,205.70
2012,02,29,14,14,264.70
2012,02,29,14,15,305.80
2012,02,29,14,16,307.10
2012,02,29,14,17,307.40
2012,02,29,14,18,266.10
2012,02,29,14,19,277.60
2012,02,29,14,20,301.30
2012,02,29,14,21,260.00
2012,02,29,14,22,258.60
2012,02,29,14,23,253.20
2012,02,29,14,24,231.50
2012,02,29,14,25,230.20
2012,02,29,14,26,274.90
2012,02,29,14,27,287.00
2012,02,29,14,28,273.80
2012,02,29,14,29,242.20
2012,02,29,14,30,242.60
2012,02,29,14,31,232.90
2012,02,29,14,32,221.40
2012,02,29,14,33,210.00
2012,02,29,14,34,214.20
2012,02,29,14,35,199.00
2012,02,29,14,36,195.90
2012,02,29,14,37,192.60
2012,02,29,14,38,197.90
2012,02,29,14,39,188.80
2012,02,29,14,40,171.30
2012,02,29,14,41,163.90
2012,02,29,14,42,180.10
2012,02,29,14,43,210.20
2012,02,29,14,44,222.30
2012,02,29,14,45,218.00
2012,02,29,14,46,266.60
2012,02,29,14,47,257.60
2012,02,29,14,48,297.10
2012,02,29,14,49,315.00
2012,02,29,14,50,348.60
2012,02,29,14,51,395.90
2012,02,29,14,52,363.30
2012,02,29,14,53,334.00
2012,02,29,14,54,503.20
2012,02,29,14,55,512.70
2012,02,29,14,56,483.60
2012,02,29,14,57,528.30
2012,02,29,14,58,547.00
2012,02,29,14,59,547.00
2012,02,29,15,00,519.00
2012,02,29,15,01,470.20
2012,02,29,15,02,457.40
2012,02,29,15,03,389.30
2012,02,29,15,04,332.00
2012,02,29,15,05,309.00
2012,02,29,15,06,334.80
2012,02,29,15,07,322.20
2012,02,29,15,08,313.20
2012,02,29,15,09,254.80
2012,02,29,15,10,266.80
2012,02,29,15,11,262.40
2012,02,29,15,12,239.40
2012,02,29,15,13,213.20
2012,02,29,15,14,206.80
2012,02,29,15,15,175.60
2012,02,29,15,16,138.30
2012,02,29,15,17,121.30
2012,02,29,15,18,116.00
2012,02,29,15,19,110.60
2012,02,29,15,20,105.70
2012,02,29,15,21,98.10
2012,02,29,15,22,91.30
2012,02,29,15,23,89.60
2012,02,29,15,24,86.80
2012,02,29,15,25,81.80
2012,02,29,15,26,77.30
2012,02,29,15,27,71.80
2012,02,29,15,28,66.00
2012,02,29,15,29,61.80
2012,02,29,15,30,57.20
2012,02,29,15,31,53.10
2012,02,29,15,32,49.20
2012,02,29,15,33,46.50
2012,02,29,15,34,46.00
2012,02,29,15,35,46.00
2012,02,29,15,36,50.60
2012,02,29,15,37,52.60
2012,02,29,15,38,51.00
2012,02,29,15,39,51.90
2012,02,29,15,40,54.70
2012,02,29,15,41,60.20
2012,02,29,15,42,66.00
2012,02,29,15,43,70.10
2012,02,29,15,44,74.00
2012,02,29,15,45,74.60
2012,02,29,15,46,74.20
2012,02,29,15,47,69.20
2012,02,29,15,48,64.20
2012,02,29,15,49,62.20
2012,02,29,15,50,63.00
2012,02,29,15,51,65.60
2012,02,29,15,52,78.20
2012,02,29,15,53,86.20
2012,02,29,15,54,91.70
2012,02,29,15,55,100.70
2012,02,29,15,56,112.10
2012,02,29,15,57,124.00
2012,02,29,15,58,125.60
2012,02,29,15,59,128.60
2012,02,29,16,00,130.00
2012,02,29,16,01,136.50
2012,02,29,16,02,139.70
2012,02,29,16,03,137.30
2012,02,29,16,04,141.90
2012,02,29,16,05,144.00
2012,02,29,16,06,143.40
2012,02,29,16,07,141.50
2012,02,29,16,08,136.90
2012,02,29,16,09,137.50
2012,02,29,16,10,143.00
2012,02,29,16,11,132.30
2012,02,29,16,12,146.00
2012,02,29,16,13,148.10
2012,02,29,16,14,153.90
2012,02,29,16,15,155.00
2012,02,29,16,16,160.60
2012,02,29,16,17,173.40
2012,02,29,16,18,128.60
2012,02,29,16,19,110.60
2012,02,29,16,20,108.40
2012,02,29,16,21,106.10
2012,02,29,16,22,104.40
2012,02,29,16,23,102.60
2012,02,29,16,24,102.00
2012,02,29,16,25,100.10
2012,02,29,16,26,100.00
2012,02,29,16,27,101.20
2012,02,29,16,28,105.20
2012,02,29,16,29,110.80
2012,02,29,16,30,116.70
2012,02,29,16,31,125.20
2012,02,29,16,32,104.70
2012,02,29,16,33,94.60
2012,02,29,16,34,92.40
2012,02,29,16,35,91.00
2012,02,29,16,36,90.40
2012,02,29,16,37,90.00
2012,02,29,16,38,90.00
2012,02,29,16,39,90.90
2012,02,29,16,40,91.00
2012,02,29,16,41,90.70
2012,02,29,16,42,89.00
2012,02,29,16,43,89.10
2012,02,29,16,44,94.90
2012,02,29,16,45,97.00
2012,02,29,16,46,92.70
2012,02,29,16,47,87.60
2012,02,29,16,48,85.00
2012,02,29,16,49,82.10
2012,02,29,16,50,78.80
2012,02,29,16,51,76.30
2012,02,29,16,52,74.40
2012,02,29,16,53,74.00
2012,02,29,16,54,74.00
2012,02,29,16,55,74.00
2012,02,29,16,56,73.10
2012,02,29,16,57,72.00
2012,02,29,16,58,79.70
2012,02,29,16,59,79.80
2012,02,29,17,00,76.10
2012,02,29,17,01,73.60
2012,02,29,17,02,71.40
2012,02,29,17,03,70.00
2012,02,29,17,04,69.40
2012,02,29,17,05,67.60
2012,02,29,17,06,65.40
2012,02,29,17,07,63.10
2012,02,29,17,08,63.00
2012,02,29,17,09,63.00
2012,02,29,17,10,62.50
2012,02,29,17,11,59.80
2012,02,29,17,12,55.20
2012,02,29,17,13,51.60
2012,02,29,17,14,48.90
2012,02,29,17,15,46.80
2012,02,29,17,16,45.40
2012,02,29,17,17,43.10
2012,02,29,17,18,42.00
2012,02,29,17,19,40.60
2012,02,29,17,20,40.00
2012,02,29,17,21,38.80
2012,02,29,17,22,36.60
2012,02,29,17,23,34.30
2012,02,29,17,24,33.00
2012,02,29,17,25,33.00